EST,Max TemperatureF,Mean TemperatureF,Min TemperatureF,Max Dew PointF,MeanDew PointF,Min DewpointF,Max Humidity, Mean Humidity, Min Humidity, Max Sea Level PressureIn, Mean Sea Level PressureIn, Min Sea Level PressureIn, Max VisibilityMiles, Mean VisibilityMiles, Min VisibilityMiles, Max Wind SpeedMPH, Mean Wind SpeedMPH, Max Gust SpeedMPH,PrecipitationIn, CloudCover, Events, WindDirDegrees
2013-2-1,18,12,7,9,2,-2,83,65,54,30.46,30.33,30.07,10,9,2,24,13,32,0.00,3,Snow,274
2013-2-2,30,20,10,27,19,5,89,81,65,30.37,30.13,30.00,10,5,0,10,4,,0.07,8,Fog-Snow,227
2013-2-3,28,20,10,23,14,6,84,71,60,30.17,30.05,29.97,10,9,2,12,7,16,0.00,7,Snow,271
2013-2-4,35,22,8,34,25,4,96,83,59,30.17,29.94,29.84,10,6,0,7,2,,0.08,8,Fog-Snow,198
2013-2-5,37,30,24,32,27,21,96,80,70,30.04,29.94,29.88,8,6,2,10,3,,0.00,7,,305
2013-2-6,37,31,25,30,26,22,88,76,67,30.30,30.22,30.04,9,7,5,10,5,,0.00,6,,342
2013-2-7,59,44,28,36,30,24,85,65,38,30.25,30.05,29.81,10,8,5,6,3,,0.00,1,,97
2013-2-8,53,43,32,45,31,21,93,75,52,30.36,30.09,29.81,10,10,5,18,11,28,0.08,8,Rain,311
2013-2-9,41,29,17,22,19,13,85,66,40,30.47,30.38,30.27,10,10,8,8,5,,0.00,1,,78
2013-2-10,55,40,25,45,31,19,87,63,35,30.25,30.03,29.81,10,10,8,12,4,22,0.02,6,Rain,154
2013-2-11,53,45,37,49,35,26,90,63,43,30.07,29.90,29.78,10,10,10,21,11,32,0.01,3,,244
2013-2-12,51,36,21,27,24,20,92,66,32,30.18,30.07,29.95,10,10,5,10,3,16,0.00,0,,242
2013-2-13,37,31,25,29,27,22,93,84,73,29.93,29.86,29.81,10,4,0,8,4,,0.10,6,Fog-Snow,327
2013-2-14,54,40,26,36,32,23,92,74,47,30.03,29.92,29.84,10,9,6,15,5,22,0.00,4,,226
2013-2-15,41,30,18,32,26,15,92,79,61,30.20,30.10,30.02,10,8,2,17,5,28,0.01,5,Snow,289
2013-2-16,30,22,14,21,14,8,92,71,49,30.18,30.13,30.09,10,8,2,15,5,20,0.00,6,Snow,302
2013-2-17,32,21,10,13,9,4,87,63,32,30.29,30.22,30.15,10,9,2,8,3,,0.00,2,Snow,308
2013-2-18,60,40,19,40,23,9,79,51,33,30.25,30.02,29.77,10,10,7,15,6,32,0.08,2,Rain,168
2013-2-19,46,36,25,41,27,14,93,73,54,30.16,29.87,29.67,10,9,3,18,14,37,0.18,8,Rain-Snow,258
2013-2-20,28,24,19,14,12,9,68,61,51,30.35,30.28,30.17,10,10,9,16,11,22,0.00,5,Snow,307
2013-2-21,30,24,19,26,17,10,85,68,59,30.40,30.29,30.07,10,10,6,16,7,24,0.10,6,Rain,56
2013-2-22,44,35,26,38,31,25,100,91,76,30.10,29.98,29.91,10,5,0,13,6,18,0.19,6,Fog-Rain-Snow,149
2013-2-23,44,36,28,32,27,23,100,76,47,30.04,29.99,29.94,10,8,2,9,3,,0.00,4,,280
2013-2-24,41,32,23,25,22,19,93,71,47,30.19,30.11,29.99,10,10,7,10,5,,0.00,3,,297
2013-2-25,46,32,18,26,22,14,89,68,44,30.22,30.12,29.94,10,9,5,14,4,18,0.00,0,,80
2013-2-26,48,42,35,46,40,24,100,89,57,29.91,29.52,29.38,10,6,2,17,9,25,0.64,7,Rain,103
2013-2-27,42,38,33,42,34,30,100,88,76,29.75,29.68,29.55,10,8,2,15,10,23,0.05,8,Rain-Snow,231
2013-2-28,37,35,33,34,31,28,93,85,81,29.98,29.83,29.71,10,8,2,13,8,18,0.01,8,Snow,264